Location: Newark
(42.8481°N, 0.4872°E)
Time: 17:40:26
(UTC+00:00)

Vanguard 2 - Pass Details

Date: 05 November 2020
Orbit: 554 x 2937 km, 32.9° (Epoch: 24 November)

Event Time Altitude Azimuth Distance (km) Brightness Sun altitude
Rises 18:11:15 0° 245° (WSW) 4,286 12.8 -16.1°
Reaches altitude 10° 18:13:48 10° 240° (WSW) 3,581 12.0 -16.6°
Maximum altitude 18:23:08 51° 167° (SSE) 2,435 9.9 -18.3°
Enters shadow 18:32:46 23° 106° (ESE) 4,228 10.7 -20.1°
Drops below altitude 10° 18:37:43 10° 99° (E) 5,456 - -21.0°
Sets 18:42:37 0° 95° (E) 6,658 - -21.9°
